Total_Precipitation_Accumulation
1.88 1.82 1.77 1.65 1.57 1.56 1.64 1.84 2.15 2.11 1.72 1.38 1.32 1.27 1.25 1.24 1.37 1.31 1.20 1.46 1.49 1.45 1.46 1.46 1.40 1.37 1.47 1.62 1.80 2.06 2.28 2.35 2.31 2.34 2.39 2.40 2.48 2.64
1.77 1.73 1.67 1.60 1.58 1.60 1.66 1.72 1.87 2.04 1.87 1.41 1.23 1.20 1.25 1.26 1.40 1.26 1.23 1.47 1.44 1.40 1.36 1.30 1.28 1.30 1.38 1.51 1.58 1.73 1.98 2.13 2.11 2.12 2.21 2.30 2.38 2.49
1.71 1.67 1.63 1.58 1.59 1.56 1.60 1.68 1.73 1.81 1.80 1.41 1.18 1.17 1.28 1.30 1.33 1.26 1.22 1.19 1.14 1.26 1.23 1.21 1.17 1.20 1.29 1.40 1.50 1.58 1.72 1.85 1.96 2.02 2.13 2.24 2.31 2.32
1.70 1.69 1.65 1.64 1.73 1.74 1.73 1.71 1.69 1.66 1.66 1.51 1.26 1.18 1.18 1.14 1.12 1.14 1.15 1.15 1.06 1.21 1.19 1.15 1.18 1.21 1.26 1.28 1.34 1.44 1.53 1.60 1.70 1.80 1.87 1.98 2.10 2.20
1.73 1.72 1.69 1.71 1.78 1.78 1.75 1.72 1.64 1.59 1.57 1.54 1.38 1.24 1.24 1.19 1.17 1.15 1.13 1.12 1.04 1.12 1.17 1.15 1.18 1.21 1.22 1.27 1.29 1.30 1.33 1.40 1.46 1.56 1.66 1.73 1.81 1.94
1.77 1.72 1.66 1.64 1.62 1.61 1.59 1.55 1.55 1.56 1.57 1.58 1.49 1.36 1.30 1.29 1.31 1.35 1.32 1.20 1.12 1.01 1.08 1.06 1.08 1.12 1.13 1.15 1.18 1.18 1.19 1.27 1.37 1.45 1.57 1.64 1.67 1.80
1.83 1.76 1.64 1.58 1.50 1.47 1.44 1.40 1.42 1.53 1.61 1.64 1.56 1.44 1.32 1.32 1.36 1.30 1.32 1.28 1.22 1.08 1.04 0.99 0.95 0.92 0.94 1.01 1.09 1.18 1.25 1.36 1.51 1.60 1.70 1.78 1.85 1.92
1.74 1.60 1.52 1.51 1.45 1.48 1.48 1.45 1.49 1.62 1.73 1.69 1.55 1.37 1.17 1.10 1.19 1.33 1.45 1.51 1.44 1.11 1.05 1.09 1.02 1.00 0.93 0.92 1.10 1.21 1.30 1.42 1.57 1.64 1.70 1.76 1.83 1.93
1.64 1.51 1.42 1.30 1.29 1.19 1.30 1.40 1.43 1.51 1.54 1.47 1.39 1.20 1.10 1.08 1.29 1.55 1.56 1.47 1.24 1.02 1.08 1.21 1.10 1.07 0.99 1.04 1.20 1.18 1.28 1.41 1.55 1.62 1.69 1.72 1.77 1.87
1.45 1.43 1.37 1.31 1.24 1.21 1.24 1.32 1.22 1.17 1.17 1.09 1.08 1.10 1.11 1.13 1.32 1.59 1.62 1.59 1.36 1.16 1.15 1.31 1.16 1.10 1.02 1.04 1.18 1.12 1.15 1.26 1.42 1.56 1.68 1.70 1.73 1.81
1.20 1.25 1.31 1.25 1.33 1.43 1.37 1.32 1.16 1.03 1.06 1.13 1.18 1.19 1.26 1.26 1.33 1.66 1.85 1.91 1.70 1.35 1.16 1.16 1.06 1.05 1.10 1.11 1.16 1.23 1.19 1.25 1.37 1.47 1.54 1.64 1.74 1.80
1.10 1.15 1.29 1.26 1.36 1.45 1.31 1.26 1.18 1.04 1.00 1.00 0.99 0.98 0.97 1.03 1.21 1.39 1.81 2.15 1.86 1.51 1.11 1.17 1.17 1.23 1.52 1.23 1.14 1.17 1.20 1.30 1.39 1.41 1.43 1.51 1.62 1.61
1.06 1.04 1.08 1.32 1.40 1.40 1.28 1.13 1.14 1.15 1.02 0.94 0.93 0.90 0.88 0.93 0.99 1.09 1.38 1.99 2.18 1.65 1.04 1.48 1.68 1.38 1.58 1.34 1.18 1.22 1.30 1.42 1.48 1.48 1.48 1.50 1.55 1.61
0.98 0.93 1.00 1.25 1.24 1.20 1.14 1.15 1.27 1.19 1.01 1.01 0.99 0.96 0.92 0.89 0.90 0.97 1.09 1.30 1.57 1.60 1.23 1.66 2.18 1.76 1.85 1.59 1.31 1.32 1.37 1.56 1.78 1.82 1.74 1.75 1.69 1.67
0.97 1.10 1.14 1.11 1.05 1.03 1.10 1.15 1.12 1.07 1.16 1.24 1.13 0.97 0.88 0.86 0.89 0.97 1.03 1.11 1.20 1.23 1.24 1.39 1.79 1.87 2.07 2.03 1.63 1.42 1.55 1.68 1.95 2.19 2.07 1.84 1.64 1.58
1.08 1.13 1.09 1.00 0.94 0.96 1.04 1.06 1.03 1.07 1.22 1.30 1.20 1.02 0.92 0.95 1.00 1.08 1.21 1.25 1.38 1.31 1.25 1.28 1.46 1.82 2.00 1.75 1.79 1.69 1.69 2.04 2.21 2.37 2.23 1.95 1.69 1.53
1.17 1.02 0.94 0.92 0.91 0.89 0.90 0.92 0.97 1.06 1.17 1.14 1.18 1.17 1.10 1.09 1.10 1.17 1.38 1.52 1.58 1.40 1.28 1.23 1.26 1.40 1.60 1.71 1.78 1.68 1.75 1.96 2.16 2.32 2.15 1.99 1.86 1.69
1.18 1.04 0.96 0.88 0.85 0.82 0.82 0.87 0.91 1.00 1.09 1.19 1.23 1.23 1.24 1.22 1.22 1.23 1.42 1.61 1.61 1.44 1.32 1.23 1.27 1.41 1.46 1.48 1.65 1.78 1.81 1.97 2.06 2.01 1.76 1.81 1.88 1.68
1.13 1.05 0.96 0.91 0.87 0.83 0.84 0.86 0.89 0.90 1.04 1.22 1.32 1.33 1.35 1.32 1.33 1.38 1.46 1.55 1.50 1.36 1.21 1.13 1.29 1.69 1.79 1.39 1.19 1.47 1.83 1.93 1.81 1.75 1.59 1.61 1.83 1.69
1.01 1.00 0.95 0.92 0.92 0.93 0.95 0.98 0.98 0.98 1.06 1.18 1.26 1.32 1.40 1.46 1.46 1.45 1.48 1.52 1.47 1.27 1.10 0.98 1.09 1.56 2.07 1.86 1.53 1.39 1.50 1.72 1.83 1.87 1.64 1.48 1.57 1.57
0.92 0.90 0.89 0.91 0.97 1.01 1.04 1.07 1.11 1.16 1.19 1.31 1.33 1.35 1.42 1.54 1.49 1.39 1.39 1.36 1.31 1.21 1.11 0.93 0.89 1.15 1.52 1.72 1.59 1.28 1.32 1.46 1.65 2.02 1.98 1.83 1.62 1.43
0.91 0.90 0.88 0.89 0.97 1.03 1.07 1.12 1.18 1.20 1.24 1.33 1.38 1.41 1.45 1.55 1.53 1.37 1.27 1.27 1.19 1.12 1.05 0.91 0.85 0.98 1.26 1.62 1.46 1.14 1.12 1.16 1.22 1.33 1.60 1.98 2.40 2.44
0.95 0.94 0.92 0.95 1.01 1.08 1.13 1.15 1.20 1.21 1.26 1.37 1.42 1.41 1.41 1.40 1.29 1.26 1.23 1.22 1.24 1.17 1.11 1.08 1.00 1.02 1.10 1.21 1.28 1.14 1.03 1.00 1.00 1.08 1.30 1.36 1.47 1.71